TimeCDT,TemperatureF,Dew PointF,Humidity,Sea Level PressureIn,VisibilityMPH,Wind Direction,Wind SpeedMPH,Gust SpeedMPH,PrecipitationIn,Events,Conditions,WindDirDegrees,DateUTC
12:15 AM,56.3,50.5,81,30.20,10.0,SE,4.6,-,N/A,,Clear,140,2013-09-06 05:15:00
12:35 AM,55.4,50.4,83,30.20,10.0,SE,4.6,-,N/A,,Clear,140,2013-09-06 05:35:00
12:55 AM,55.8,50.4,82,30.20,10.0,SSE,4.6,-,N/A,,Clear,150,2013-09-06 05:55:00
1:15 AM,55.4,50.4,83,30.20,10.0,SE,4.6,-,N/A,,Clear,140,2013-09-06 06:15:00
1:35 AM,55.0,50.4,84,30.20,10.0,SSE,5.8,-,N/A,,Clear,150,2013-09-06 06:35:00
1:55 AM,54.9,50.5,85,30.20,10.0,SSE,4.6,-,N/A,,Clear,150,2013-09-06 06:55:00
2:15 AM,54.9,50.9,86,30.20,10.0,SSE,6.9,-,N/A,,Scattered Clouds,160,2013-09-06 07:15:00
2:35 AM,54.9,50.9,86,30.19,10.0,SSE,6.9,-,N/A,,Scattered Clouds,150,2013-09-06 07:35:00
2:55 AM,54.7,50.9,87,30.19,10.0,SSE,5.8,-,N/A,,Mostly Cloudy,150,2013-09-06 07:55:00
3:15 AM,54.5,50.9,88,30.19,10.0,SSE,6.9,-,N/A,,Overcast,160,2013-09-06 08:15:00
3:35 AM,54.1,50.9,89,30.18,10.0,SSE,6.9,-,N/A,,Scattered Clouds,160,2013-09-06 08:35:00
3:55 AM,53.6,50.9,91,30.18,10.0,SSE,6.9,-,N/A,,Clear,150,2013-09-06 08:55:00
4:15 AM,53.8,50.9,90,30.19,10.0,South,5.8,-,N/A,,Scattered Clouds,170,2013-09-06 09:15:00
4:35 AM,52.7,50.7,93,30.18,10.0,SSE,5.8,-,N/A,,Scattered Clouds,160,2013-09-06 09:35:00
4:55 AM,53.6,50.9,91,30.18,10.0,SSE,5.8,-,N/A,,Mostly Cloudy,160,2013-09-06 09:55:00
5:15 AM,53.8,50.9,90,30.19,10.0,SSE,5.8,-,N/A,,Overcast,160,2013-09-06 10:15:00
5:35 AM,53.8,50.9,90,30.19,10.0,SSE,5.8,-,N/A,,Overcast,160,2013-09-06 10:35:00
5:55 AM,52.7,50.5,92,30.18,10.0,South,5.8,-,N/A,,Mostly Cloudy,170,2013-09-06 10:55:00
6:15 AM,53.2,50.9,92,30.18,10.0,SSE,5.8,-,N/A,,Mostly Cloudy,160,2013-09-06 11:15:00
6:35 AM,52.9,50.9,93,30.17,10.0,SSE,8.1,-,N/A,,Mostly Cloudy,160,2013-09-06 11:35:00
6:55 AM,53.8,51.4,92,30.17,10.0,South,4.6,-,N/A,,Mostly Cloudy,180,2013-09-06 11:55:00
7:15 AM,54.5,51.4,89,30.17,10.0,Calm,Calm,-,N/A,,Mostly Cloudy,0,2013-09-06 12:15:00
7:35 AM,55.4,52.0,88,30.17,10.0,SSE,4.6,-,N/A,,Overcast,160,2013-09-06 12:35:00
8:15 AM,56.8,52.5,85,30.15,10.0,South,8.1,-,N/A,,Mostly Cloudy,170,2013-09-06 13:15:00
8:35 AM,58.6,53.1,82,30.15,10.0,South,6.9,-,N/A,,Scattered Clouds,170,2013-09-06 13:35:00
8:55 AM,60.3,53.8,79,30.16,10.0,South,5.8,-,N/A,,Mostly Cloudy,180,2013-09-06 13:55:00
9:15 AM,62.2,54.7,76,30.16,10.0,South,4.6,-,N/A,,Overcast,180,2013-09-06 14:15:00
9:35 AM,63.9,55.2,73,30.15,10.0,South,8.1,-,N/A,,Mostly Cloudy,170,2013-09-06 14:35:00
9:55 AM,65.5,56.1,72,30.13,10.0,South,9.2,-,N/A,,Scattered Clouds,180,2013-09-06 14:55:00
10:15 AM,67.3,56.5,68,30.12,10.0,SSE,9.2,-,N/A,,Clear,160,2013-09-06 15:15:00
10:55 AM,70.2,58.3,66,30.12,10.0,SSE,3.5,-,N/A,,Clear,160,2013-09-06 15:55:00
11:15 AM,71.6,59.2,65,30.12,10.0,WSW,5.8,-,N/A,,Clear,240,2013-09-06 16:15:00
11:35 AM,73.0,59.9,63,30.12,10.0,South,4.6,-,N/A,,Clear,190,2013-09-06 16:35:00
11:55 AM,74.1,60.3,62,30.11,10.0,South,5.8,-,N/A,,Clear,170,2013-09-06 16:55:00
12:15 PM,75.7,61.0,60,30.09,10.0,South,9.2,-,N/A,,Clear,170,2013-09-06 17:15:00
12:35 PM,76.6,61.2,59,30.07,10.0,South,8.1,-,N/A,,Clear,190,2013-09-06 17:35:00
12:55 PM,78.1,62.2,58,30.07,10.0,South,8.1,-,N/A,,Clear,190,2013-09-06 17:55:00
1:15 PM,79.3,63.0,57,30.06,10.0,South,8.1,-,N/A,,Clear,190,2013-09-06 18:15:00
1:35 PM,80.2,63.3,56,30.06,10.0,SSW,8.1,-,N/A,,Clear,210,2013-09-06 18:35:00
1:55 PM,81.0,63.5,55,30.05,10.0,SW,8.1,-,N/A,,Clear,220,2013-09-06 18:55:00
2:35 PM,82.0,63.1,53,30.03,10.0,SW,9.2,16.1,N/A,,Clear,230,2013-09-06 19:35:00
2:55 PM,82.8,63.7,52,30.02,10.0,SW,11.5,-,N/A,,Scattered Clouds,220,2013-09-06 19:55:00
3:15 PM,82.9,62.6,50,30.01,10.0,SSW,12.7,18.4,N/A,,Scattered Clouds,210,2013-09-06 20:15:00
3:35 PM,81.7,61.2,50,30.01,10.0,SSW,15.0,19.6,N/A,,Mostly Cloudy,210,2013-09-06 20:35:00
3:55 PM,81.5,61.5,51,30.01,10.0,SSW,11.5,16.1,N/A,,Overcast,210,2013-09-06 20:55:00
4:15 PM,82.4,63.0,52,30.00,10.0,SSW,12.7,16.1,N/A,,Mostly Cloudy,200,2013-09-06 21:15:00
4:35 PM,82.6,61.9,49,29.99,10.0,SW,11.5,19.6,N/A,,Scattered Clouds,220,2013-09-06 21:35:00
4:55 PM,81.5,62.4,52,29.98,10.0,SW,11.5,-,N/A,,Scattered Clouds,220,2013-09-06 21:55:00
5:15 PM,81.7,62.4,52,29.98,10.0,SSW,11.5,-,N/A,,Mostly Cloudy,210,2013-09-06 22:15:00
5:35 PM,81.5,62.8,53,29.97,10.0,SSW,11.5,-,N/A,,Scattered Clouds,210,2013-09-06 22:35:00
5:55 PM,80.8,62.2,53,29.98,10.0,SW,10.4,17.3,N/A,,Clear,220,2013-09-06 22:55:00
6:15 PM,79.0,62.8,57,29.97,10.0,SW,6.9,-,N/A,,Scattered Clouds,220,2013-09-06 23:15:00
6:35 PM,78.1,63.3,60,29.97,10.0,SSW,5.8,-,N/A,,Scattered Clouds,210,2013-09-06 23:35:00
6:55 PM,78.4,63.5,60,29.97,10.0,SSW,9.2,-,N/A,,Mostly Cloudy,210,2013-09-06 23:55:00
7:15 PM,77.9,63.7,61,29.96,10.0,SSW,9.2,-,N/A,,Overcast,200,2013-09-07 00:15:00
7:35 PM,77.0,63.7,63,29.96,10.0,SSW,8.1,-,N/A,,Overcast,200,2013-09-07 00:35:00
7:55 PM,75.9,63.9,66,29.96,10.0,SSW,5.8,-,N/A,,Mostly Cloudy,200,2013-09-07 00:55:00
8:15 PM,74.8,64.0,69,29.96,10.0,South,8.1,-,N/A,,Mostly Cloudy,190,2013-09-07 01:15:00
8:35 PM,73.9,64.2,72,29.97,10.0,SSW,6.9,-,N/A,,Mostly Cloudy,200,2013-09-07 01:35:00
8:55 PM,73.4,64.4,73,29.96,10.0,South,8.1,-,N/A,,Overcast,190,2013-09-07 01:55:00
9:15 PM,73.8,64.0,72,29.96,10.0,South,5.8,-,N/A,,Mostly Cloudy,190,2013-09-07 02:15:00
9:35 PM,72.7,64.0,74,29.96,10.0,SSW,6.9,-,N/A,,Mostly Cloudy,200,2013-09-07 02:35:00
9:55 PM,72.7,63.9,74,29.97,10.0,SSW,5.8,-,N/A,,Mostly Cloudy,200,2013-09-07 02:55:00
10:15 PM,71.8,63.7,76,29.97,10.0,SSW,4.6,-,N/A,,Scattered Clouds,200,2013-09-07 03:15:00
10:35 PM,68.9,63.5,83,29.96,10.0,South,4.6,-,N/A,,Clear,180,2013-09-07 03:35:00
10:55 PM,70.0,63.5,80,29.96,10.0,SSW,4.6,-,N/A,,Scattered Clouds,200,2013-09-07 03:55:00
11:15 PM,69.8,63.5,80,29.96,10.0,SSW,4.6,-,N/A,,Mostly Cloudy,200,2013-09-07 04:15:00
11:35 PM,69.4,63.7,82,29.96,10.0,SSW,4.6,-,N/A,,Overcast,200,2013-09-07 04:35:00
11:55 PM,69.1,63.7,83,29.96,10.0,SSW,5.8,-,N/A,,Mostly Cloudy,200,2013-09-07 04:55:00